User: anonymous   Login
Location: Newark
(0.5333°S, 166.9167°E)
Time: 10:29:59
(UTC+00:00)
Language:

PicSat - Orbit

View from above orbital plane
View from above orbital plane
View from above satellite
View from above satellite

Ground track
Ground track

The orbit data is extracted from the following two-line orbital elements,

1 43131U 18004W   19315.87172409 +.00001816 +00000-0 +76656-4 0  9992
2 43131 097.4751 023.6814 0010967 099.4399 260.8079 15.24532716101782
Epoch (UTC): 11 November 2019 20:55:16
Eccentricity: 0.0010967
inclination: 97.4751°
perigee height: 484 km
apogee height: 500 km
right ascension of ascending node: 23.6814°
argument of perigee: 99.4399°
revolutions per day: 15.24532716
mean anomaly at epoch: 260.8079°
orbit number at epoch: 10178

The dashed part of the orbit path shows where the satellite is in the earth's shadow,  

DLR